Time,TemperatureF,DewpointF,PressureIn,WindDirection,WindDirectionDegrees,WindSpeedMPH,WindSpeedGustMPH,Humidity,HourlyPrecipIn,Conditions,Clouds,dailyrainin,SoftwareType,DateUTC
2013-04-27 00:09:00,74.8,66.0,30.27,NE,46,7.0,10.0,75,0.00,,,0.00,weatherlink.com 1.10,2013-04-27 04:09:00,
2013-04-27 00:25:00,74.8,66.0,30.27,ENE,76,9.0,13.0,74,0.00,,,0.00,weatherlink.com 1.10,2013-04-27 04:25:00,
2013-04-27 00:39:00,74.8,66.0,30.27,NE,48,5.0,13.0,74,0.00,,,0.00,weatherlink.com 1.10,2013-04-27 04:39:00,
2013-04-27 00:55:00,74.7,66.0,30.26,ENE,58,9.0,12.0,75,0.00,,,0.00,weatherlink.com 1.10,2013-04-27 04:55:00,
2013-04-27 01:10:00,74.6,66.0,30.26,NE,55,9.0,10.0,75,0.00,,,0.00,weatherlink.com 1.10,2013-04-27 05:10:00,
2013-04-27 01:25:00,74.7,66.0,30.25,NE,48,7.0,13.0,75,0.00,,,0.00,weatherlink.com 1.10,2013-04-27 05:25:00,
2013-04-27 01:40:00,74.6,66.0,30.25,NE,43,7.0,11.0,74,0.00,,,0.00,weatherlink.com 1.10,2013-04-27 05:40:00,
2013-04-27 01:56:00,74.5,65.0,30.24,NE,47,6.0,14.0,73,0.00,,,0.00,weatherlink.com 1.10,2013-04-27 05:56:00,
2013-04-27 02:10:00,74.4,66.0,30.23,ENE,64,12.0,13.0,75,0.00,,,0.00,weatherlink.com 1.10,2013-04-27 06:10:00,
2013-04-27 02:24:00,74.4,65.0,30.23,ENE,64,7.0,12.0,73,0.00,,,0.00,weatherlink.com 1.10,2013-04-27 06:24:00,
2013-04-27 02:40:00,74.3,65.0,30.22,ENE,59,8.0,14.0,72,0.00,,,0.00,weatherlink.com 1.10,2013-04-27 06:40:00,
2013-04-27 02:55:00,74.2,65.0,30.21,ENE,60,10.0,15.0,72,0.00,,,0.00,weatherlink.com 1.10,2013-04-27 06:55:00,
2013-04-27 03:11:00,74.0,65.0,30.21,ENE,68,8.0,13.0,73,0.00,,,0.00,weatherlink.com 1.10,2013-04-27 07:11:00,
2013-04-27 03:25:00,74.1,65.0,30.21,NNE,20,7.0,14.0,73,0.00,,,0.00,weatherlink.com 1.10,2013-04-27 07:25:00,
2013-04-27 03:41:00,74.2,64.0,30.21,ENE,60,8.0,13.0,70,0.00,,,0.00,weatherlink.com 1.10,2013-04-27 07:41:00,
2013-04-27 03:56:00,74.0,64.0,30.20,ENE,60,6.0,11.0,72,0.00,,,0.00,weatherlink.com 1.10,2013-04-27 07:56:00,
2013-04-27 04:11:00,74.1,63.0,30.20,ENE,73,8.0,12.0,69,0.00,,,0.00,weatherlink.com 1.10,2013-04-27 08:11:00,
2013-04-27 04:26:00,74.0,64.0,30.20,ENE,58,7.0,11.0,70,0.00,,,0.00,weatherlink.com 1.10,2013-04-27 08:26:00,
2013-04-27 04:43:00,74.0,64.0,30.19,East,81,6.0,10.0,71,0.00,,,0.00,weatherlink.com 1.10,2013-04-27 08:43:00,
2013-04-27 04:56:00,73.9,65.0,30.19,East,79,8.0,11.0,73,0.00,,,0.00,weatherlink.com 1.10,2013-04-27 08:56:00,
2013-04-27 05:12:00,73.9,65.0,30.18,ENE,61,6.0,10.0,74,0.00,,,0.00,weatherlink.com 1.10,2013-04-27 09:12:00,
2013-04-27 05:26:00,73.8,65.0,30.18,ENE,61,7.0,11.0,73,0.00,,,0.00,weatherlink.com 1.10,2013-04-27 09:26:00,
2013-04-27 05:41:00,73.9,65.0,30.18,ENE,72,6.0,13.0,73,0.00,,,0.00,weatherlink.com 1.10,2013-04-27 09:41:00,
2013-04-27 05:56:00,73.9,64.0,30.19,ENE,70,10.0,13.0,71,0.00,,,0.00,weatherlink.com 1.10,2013-04-27 09:56:00,
2013-04-27 06:11:00,73.9,64.0,30.19,ENE,58,9.0,9.0,72,0.00,,,0.00,weatherlink.com 1.10,2013-04-27 10:11:00,
2013-04-27 06:27:00,73.8,64.0,30.19,ENE,61,7.0,11.0,72,0.00,,,0.00,weatherlink.com 1.10,2013-04-27 10:27:00,
2013-04-27 06:41:00,73.7,65.0,30.20,NE,46,6.0,10.0,75,0.00,,,0.00,weatherlink.com 1.10,2013-04-27 10:41:00,
2013-04-27 06:57:00,74.0,65.0,30.21,East,84,8.0,11.0,73,0.00,,,0.00,weatherlink.com 1.10,2013-04-27 10:57:00,
2013-04-27 07:12:00,74.2,64.0,30.21,ENE,70,7.0,12.0,70,0.00,,,0.00,weatherlink.com 1.10,2013-04-27 11:12:00,
2013-04-27 07:27:00,74.7,64.0,30.21,NE,51,4.0,12.0,69,0.00,,,0.00,weatherlink.com 1.10,2013-04-27 11:27:00,
2013-04-27 07:41:00,75.1,64.0,30.22,NNE,30,6.0,10.0,68,0.00,,,0.00,weatherlink.com 1.10,2013-04-27 11:41:00,
2013-04-27 07:57:00,75.3,64.0,30.22,NNE,25,9.0,13.0,67,0.00,,,0.00,weatherlink.com 1.10,2013-04-27 11:57:00,
2013-04-27 08:12:00,75.5,64.0,30.22,ENE,61,11.0,13.0,67,0.00,,,0.00,weatherlink.com 1.10,2013-04-27 12:12:00,
2013-04-27 08:28:00,75.8,64.0,30.22,ENE,64,10.0,12.0,66,0.00,,,0.00,weatherlink.com 1.10,2013-04-27 12:28:00,
2013-04-27 08:42:00,75.8,65.0,30.22,ENE,64,9.0,13.0,69,0.00,,,0.00,weatherlink.com 1.10,2013-04-27 12:42:00,
2013-04-27 08:58:00,76.0,65.0,30.22,East,79,9.0,15.0,68,0.00,,,0.00,weatherlink.com 1.10,2013-04-27 12:58:00,
2013-04-27 09:12:00,76.2,64.0,30.23,NE,47,7.0,15.0,67,0.00,,,0.00,weatherlink.com 1.10,2013-04-27 13:12:00,
2013-04-27 09:28:00,76.3,65.0,30.23,East,79,10.0,14.0,68,0.00,,,0.00,weatherlink.com 1.10,2013-04-27 13:28:00,
2013-04-27 09:42:00,76.6,66.0,30.23,NE,52,12.0,17.0,69,0.00,,,0.00,weatherlink.com 1.10,2013-04-27 13:42:00,
2013-04-27 09:58:00,76.4,66.0,30.23,ENE,60,7.0,17.0,69,0.00,,,0.00,weatherlink.com 1.10,2013-04-27 13:58:00,
2013-04-27 10:12:00,76.6,65.0,30.23,ENE,78,12.0,17.0,68,0.00,,,0.00,weatherlink.com 1.10,2013-04-27 14:12:00,
2013-04-27 10:28:00,76.6,66.0,30.23,East,82,11.0,16.0,70,0.00,,,0.00,weatherlink.com 1.10,2013-04-27 14:28:00,
2013-04-27 10:42:00,76.7,66.0,30.23,NE,53,8.0,15.0,69,0.00,,,0.00,weatherlink.com 1.10,2013-04-27 14:42:00,
2013-04-27 10:58:00,77.0,67.0,30.23,ENE,64,15.0,15.0,70,0.00,,,0.00,weatherlink.com 1.10,2013-04-27 14:58:00,
2013-04-27 11:12:00,77.1,66.0,30.23,NE,40,7.0,16.0,68,0.00,,,0.00,weatherlink.com 1.10,2013-04-27 15:12:00,
2013-04-27 11:28:00,77.4,67.0,30.23,NE,56,10.0,14.0,70,0.00,,,0.00,weatherlink.com 1.10,2013-04-27 15:28:00,
2013-04-27 11:44:00,76.7,65.0,30.23,ENE,58,10.0,17.0,68,0.00,,,0.00,weatherlink.com 1.10,2013-04-27 15:44:00,
2013-04-27 11:58:00,77.3,66.0,30.24,NE,44,9.0,13.0,69,0.00,,,0.00,weatherlink.com 1.10,2013-04-27 15:58:00,
2013-04-27 12:13:00,77.3,66.0,30.24,East,83,8.0,15.0,68,0.00,,,0.00,weatherlink.com 1.10,2013-04-27 16:13:00,
2013-04-27 12:29:00,77.0,66.0,30.24,ENE,64,9.0,17.0,68,0.00,,,0.00,weatherlink.com 1.10,2013-04-27 16:29:00,
2013-04-27 12:43:00,77.2,67.0,30.23,ENE,68,6.0,14.0,70,0.00,,,0.00,weatherlink.com 1.10,2013-04-27 16:43:00,
2013-04-27 12:59:00,77.8,66.0,30.23,NE,36,6.0,12.0,68,0.00,,,0.00,weatherlink.com 1.10,2013-04-27 16:59:00,
2013-04-27 13:13:00,77.3,67.0,30.23,ENE,64,11.0,16.0,70,0.00,,,0.00,weatherlink.com 1.10,2013-04-27 17:13:00,
2013-04-27 13:29:00,77.1,66.0,30.23,NE,44,8.0,15.0,68,0.00,,,0.00,weatherlink.com 1.10,2013-04-27 17:29:00,
2013-04-27 13:44:00,77.6,66.0,30.22,NE,41,6.0,15.0,68,0.00,,,0.00,weatherlink.com 1.10,2013-04-27 17:44:00,
2013-04-27 13:59:00,77.7,66.0,30.22,NE,39,10.0,17.0,68,0.00,,,0.00,weatherlink.com 1.10,2013-04-27 17:59:00,
2013-04-27 14:15:00,77.6,65.0,30.22,NE,46,6.0,13.0,65,0.00,,,0.00,weatherlink.com 1.10,2013-04-27 18:15:00,
2013-04-27 14:28:00,78.0,66.0,30.21,NE,39,6.0,13.0,66,0.00,,,0.00,weatherlink.com 1.10,2013-04-27 18:28:00,
2013-04-27 14:44:00,77.6,64.0,30.21,ENE,65,10.0,15.0,63,0.00,,,0.00,weatherlink.com 1.10,2013-04-27 18:44:00,
2013-04-27 14:58:00,78.0,65.0,30.20,ENE,70,8.0,14.0,65,0.00,,,0.00,weatherlink.com 1.10,2013-04-27 18:58:00,
2013-04-27 15:14:00,77.5,65.0,30.20,NE,50,8.0,14.0,66,0.00,,,0.00,weatherlink.com 1.10,2013-04-27 19:14:00,
2013-04-27 15:30:00,77.5,66.0,30.19,NE,43,8.0,13.0,67,0.00,,,0.00,weatherlink.com 1.10,2013-04-27 19:30:00,
2013-04-27 15:44:00,77.4,65.0,30.18,ENE,63,14.0,14.0,66,0.00,,,0.00,weatherlink.com 1.10,2013-04-27 19:44:00,
2013-04-27 16:00:00,77.4,65.0,30.18,East,96,9.0,15.0,65,0.00,,,0.00,weatherlink.com 1.10,2013-04-27 20:00:00,
2013-04-27 16:14:00,77.5,65.0,30.17,ENE,61,9.0,11.0,65,0.00,,,0.00,weatherlink.com 1.10,2013-04-27 20:14:00,
2013-04-27 16:30:00,77.3,65.0,30.17,East,79,8.0,13.0,66,0.00,,,0.00,weatherlink.com 1.10,2013-04-27 20:30:00,
2013-04-27 16:44:00,77.4,64.0,30.16,ENE,68,5.0,12.0,64,0.00,,,0.00,weatherlink.com 1.10,2013-04-27 20:44:00,
2013-04-27 17:00:00,77.4,65.0,30.16,East,101,6.0,10.0,66,0.00,,,0.00,weatherlink.com 1.10,2013-04-27 21:00:00,
2013-04-27 17:14:00,77.1,65.0,30.16,ENE,58,8.0,10.0,67,0.00,,,0.00,weatherlink.com 1.10,2013-04-27 21:14:00,
2013-04-27 17:30:00,77.1,66.0,30.16,ENE,71,7.0,10.0,68,0.00,,,0.00,weatherlink.com 1.10,2013-04-27 21:30:00,
2013-04-27 17:44:00,77.0,67.0,30.16,ENE,75,8.0,12.0,70,0.00,,,0.00,weatherlink.com 1.10,2013-04-27 21:44:00,
2013-04-27 18:00:00,76.9,67.0,30.16,NE,52,8.0,10.0,71,0.00,,,0.00,weatherlink.com 1.10,2013-04-27 22:00:00,
2013-04-27 18:16:00,77.2,67.0,30.15,East,86,6.0,9.0,71,0.00,,,0.00,weatherlink.com 1.10,2013-04-27 22:16:00,
2013-04-27 18:30:00,76.2,67.0,30.15,ENE,57,9.0,12.0,72,0.00,,,0.00,weatherlink.com 1.10,2013-04-27 22:30:00,
2013-04-27 18:46:00,76.1,66.0,30.15,ENE,71,7.0,11.0,71,0.00,,,0.00,weatherlink.com 1.10,2013-04-27 22:46:00,
2013-04-27 19:00:00,76.0,67.0,30.15,East,89,9.0,9.0,74,0.00,,,0.00,weatherlink.com 1.10,2013-04-27 23:00:00,
2013-04-27 19:16:00,76.0,67.0,30.15,NE,53,4.0,10.0,74,0.00,,,0.00,weatherlink.com 1.10,2013-04-27 23:16:00,
2013-04-27 19:30:00,75.8,67.0,30.15,ENE,62,8.0,11.0,75,0.00,,,0.00,weatherlink.com 1.10,2013-04-27 23:30:00,
2013-04-27 19:46:00,75.6,67.0,30.15,ENE,65,8.0,10.0,75,0.00,,,0.00,weatherlink.com 1.10,2013-04-27 23:46:00,
2013-04-27 20:00:00,75.6,67.0,30.15,ENE,63,7.0,11.0,75,0.00,,,0.00,weatherlink.com 1.10,2013-04-28 00:00:00,
2013-04-27 20:16:00,75.4,67.0,30.16,NE,51,8.0,10.0,76,0.00,,,0.00,weatherlink.com 1.10,2013-04-28 00:16:00,
2013-04-27 20:30:00,75.4,68.0,30.16,NE,44,8.0,10.0,77,0.00,,,0.00,weatherlink.com 1.10,2013-04-28 00:30:00,
2013-04-27 20:45:00,75.2,68.0,30.16,NNE,12,7.0,13.0,77,0.00,,,0.00,weatherlink.com 1.10,2013-04-28 00:45:00,
2013-04-27 21:01:00,75.2,67.0,30.17,NE,49,8.0,12.0,76,0.00,,,0.00,weatherlink.com 1.10,2013-04-28 01:01:00,
2013-04-27 21:15:00,75.3,67.0,30.17,ENE,61,6.0,16.0,76,0.00,,,0.00,weatherlink.com 1.10,2013-04-28 01:15:00,
2013-04-27 21:31:00,75.0,66.0,30.18,NE,40,7.0,12.0,73,0.00,,,0.00,weatherlink.com 1.10,2013-04-28 01:31:00,
2013-04-27 21:47:00,75.0,66.0,30.18,NE,43,7.0,12.0,73,0.00,,,0.00,weatherlink.com 1.10,2013-04-28 01:47:00,
2013-04-27 22:01:00,75.1,65.0,30.18,NNE,30,6.0,12.0,70,0.00,,,0.00,weatherlink.com 1.10,2013-04-28 02:01:00,
2013-04-27 22:17:00,75.3,64.0,30.18,ENE,67,9.0,12.0,67,0.00,,,0.00,weatherlink.com 1.10,2013-04-28 02:17:00,
2013-04-27 22:31:00,75.4,65.0,30.19,NE,55,5.0,16.0,69,0.00,,,0.00,weatherlink.com 1.10,2013-04-28 02:31:00,
2013-04-27 22:47:00,75.3,64.0,30.18,ENE,65,9.0,15.0,67,0.00,,,0.00,weatherlink.com 1.10,2013-04-28 02:47:00,
2013-04-27 23:01:00,75.2,63.0,30.19,NE,56,9.0,17.0,67,0.00,,,0.00,weatherlink.com 1.10,2013-04-28 03:01:00,
2013-04-27 23:16:00,75.3,64.0,30.19,NE,55,9.0,16.0,67,0.00,,,0.00,weatherlink.com 1.10,2013-04-28 03:16:00,
2013-04-27 23:32:00,75.2,64.0,30.18,East,79,10.0,13.0,69,0.00,,,0.00,weatherlink.com 1.10,2013-04-28 03:32:00,
2013-04-27 23:46:00,75.1,64.0,30.18,ENE,69,12.0,14.0,68,0.00,,,0.00,weatherlink.com 1.10,2013-04-28 03:46:00,